Year,Month,Day,Hour,Minute,Value (Times are PST for temperature in C)
2015,03,13,00,00,8.60
2015,03,13,00,01,8.50
2015,03,13,00,02,8.50
2015,03,13,00,03,8.50
2015,03,13,00,04,8.50
2015,03,13,00,05,8.40
2015,03,13,00,06,8.40
2015,03,13,00,07,8.40
2015,03,13,00,08,8.40
2015,03,13,00,09,8.40
2015,03,13,00,10,8.40
2015,03,13,00,11,8.40
2015,03,13,00,12,8.40
2015,03,13,00,13,8.40
2015,03,13,00,14,8.30
2015,03,13,00,15,8.30
2015,03,13,00,16,8.30
2015,03,13,00,17,8.30
2015,03,13,00,18,8.30
2015,03,13,00,19,8.30
2015,03,13,00,20,8.30
2015,03,13,00,21,8.30
2015,03,13,00,22,8.30
2015,03,13,00,23,8.30
2015,03,13,00,24,8.30
2015,03,13,00,25,8.30
2015,03,13,00,26,8.30
2015,03,13,00,27,8.30
2015,03,13,00,28,8.30
2015,03,13,00,29,8.30
2015,03,13,00,30,8.30
2015,03,13,00,31,8.30
2015,03,13,00,32,8.30
2015,03,13,00,33,8.30
2015,03,13,00,34,8.30
2015,03,13,00,35,8.20
2015,03,13,00,36,8.20
2015,03,13,00,37,8.20
2015,03,13,00,38,8.20
2015,03,13,00,39,8.20
2015,03,13,00,40,8.20
2015,03,13,00,41,8.20
2015,03,13,00,42,8.20
2015,03,13,00,43,8.10
2015,03,13,00,44,8.10
2015,03,13,00,45,8.10
2015,03,13,00,46,8.10
2015,03,13,00,47,8.10
2015,03,13,00,48,8.10
2015,03,13,00,49,8.10
2015,03,13,00,50,8.10
2015,03,13,00,51,8.10
2015,03,13,00,52,8.10
2015,03,13,00,53,8.10
2015,03,13,00,54,8.10
2015,03,13,00,55,8.10
2015,03,13,00,56,8.10
2015,03,13,00,57,8.10
2015,03,13,00,58,8.10
2015,03,13,00,59,8.10
2015,03,13,01,00,8.10
2015,03,13,01,01,8.10
2015,03,13,01,02,8.00
2015,03,13,01,03,8.00
2015,03,13,01,04,8.00
2015,03,13,01,05,7.90
2015,03,13,01,06,7.90
2015,03,13,01,07,7.90
2015,03,13,01,08,7.90
2015,03,13,01,09,7.80
2015,03,13,01,10,7.80
2015,03,13,01,11,7.80
2015,03,13,01,12,7.80
2015,03,13,01,13,7.90
2015,03,13,01,14,7.90
2015,03,13,01,15,7.90
2015,03,13,01,16,7.90
2015,03,13,01,17,7.90
2015,03,13,01,18,7.90
2015,03,13,01,19,7.90
2015,03,13,01,20,7.80
2015,03,13,01,21,7.80
2015,03,13,01,22,7.80
2015,03,13,01,23,7.80
2015,03,13,01,24,7.80
2015,03,13,01,25,7.80
2015,03,13,01,26,7.80
2015,03,13,01,27,7.80
2015,03,13,01,28,7.80
2015,03,13,01,29,7.80
2015,03,13,01,30,7.80
2015,03,13,01,31,7.70
2015,03,13,01,32,7.70
2015,03,13,01,33,7.70
2015,03,13,01,34,7.70
2015,03,13,01,35,7.70
2015,03,13,01,36,7.70
2015,03,13,01,37,7.70
2015,03,13,01,38,7.70
2015,03,13,01,39,7.70
2015,03,13,01,40,7.70
2015,03,13,01,41,7.70
2015,03,13,01,42,7.70
2015,03,13,01,43,7.70
2015,03,13,01,44,7.60
2015,03,13,01,45,7.60
2015,03,13,01,46,7.60
2015,03,13,01,47,7.60
2015,03,13,01,48,7.60
2015,03,13,01,49,7.60
2015,03,13,01,50,7.50
2015,03,13,01,51,7.50
2015,03,13,01,52,7.50
2015,03,13,01,53,7.50
2015,03,13,01,54,7.50
2015,03,13,01,55,7.50
2015,03,13,01,56,7.50
2015,03,13,01,57,7.50
2015,03,13,01,58,7.50
2015,03,13,01,59,7.40
2015,03,13,02,00,7.40
2015,03,13,02,01,7.40
2015,03,13,02,02,7.40
2015,03,13,02,03,7.30
2015,03,13,02,04,7.30
2015,03,13,02,05,7.30
2015,03,13,02,06,7.30
2015,03,13,02,07,7.30
2015,03,13,02,08,7.30
2015,03,13,02,09,7.30
2015,03,13,02,10,7.20
2015,03,13,02,11,7.20
2015,03,13,02,12,7.20
2015,03,13,02,13,7.20
2015,03,13,02,14,7.20
2015,03,13,02,15,7.20
2015,03,13,02,16,7.20
2015,03,13,02,17,7.20
2015,03,13,02,18,7.20
2015,03,13,02,19,7.20
2015,03,13,02,20,7.10
2015,03,13,02,21,7.10
2015,03,13,02,22,7.10
2015,03,13,02,23,7.10
2015,03,13,02,24,7.10
2015,03,13,02,25,7.00
2015,03,13,02,26,7.00
2015,03,13,02,27,7.00
2015,03,13,02,28,7.00
2015,03,13,02,29,6.90
2015,03,13,02,30,6.90
2015,03,13,02,31,6.90
2015,03,13,02,32,6.90
2015,03,13,02,33,6.90
2015,03,13,02,34,6.90
2015,03,13,02,35,6.90
2015,03,13,02,36,6.90
2015,03,13,02,37,6.90
2015,03,13,02,38,6.90
2015,03,13,02,39,6.80
2015,03,13,02,40,6.80
2015,03,13,02,41,6.80
2015,03,13,02,42,6.80
2015,03,13,02,43,6.80
2015,03,13,02,44,6.80
2015,03,13,02,45,6.70
2015,03,13,02,46,6.70
2015,03,13,02,47,6.70
2015,03,13,02,48,6.70
2015,03,13,02,49,6.70
2015,03,13,02,50,6.70
2015,03,13,02,51,6.60
2015,03,13,02,52,6.60
2015,03,13,02,53,6.60
2015,03,13,02,54,6.60
2015,03,13,02,55,6.70
2015,03,13,02,56,6.70
2015,03,13,02,57,6.70
2015,03,13,02,58,6.70
2015,03,13,02,59,6.70
2015,03,13,03,00,6.70
2015,03,13,03,01,6.70
2015,03,13,03,02,6.70
2015,03,13,03,03,6.70
2015,03,13,03,04,6.70
2015,03,13,03,05,6.60
2015,03,13,03,06,6.60
2015,03,13,03,07,6.60
2015,03,13,03,08,6.60
2015,03,13,03,09,6.60
2015,03,13,03,10,6.50
2015,03,13,03,11,6.50
2015,03,13,03,12,6.50
2015,03,13,03,13,6.50
2015,03,13,03,14,6.60
2015,03,13,03,15,6.60
2015,03,13,03,16,6.60
2015,03,13,03,17,6.60
2015,03,13,03,18,6.70
2015,03,13,03,19,6.70
2015,03,13,03,20,6.70
2015,03,13,03,21,6.70
2015,03,13,03,22,6.60
2015,03,13,03,23,6.60
2015,03,13,03,24,6.60
2015,03,13,03,25,6.60
2015,03,13,03,26,6.60
2015,03,13,03,27,6.50
2015,03,13,03,28,6.50
2015,03,13,03,29,6.50
2015,03,13,03,30,6.50
2015,03,13,03,31,6.50
2015,03,13,03,32,6.50
2015,03,13,03,33,6.40
2015,03,13,03,34,6.40
2015,03,13,03,35,6.40
2015,03,13,03,36,6.40
2015,03,13,03,37,6.40
2015,03,13,03,38,6.40
2015,03,13,03,39,6.40
2015,03,13,03,40,6.30
2015,03,13,03,41,6.30
2015,03,13,03,42,6.30
2015,03,13,03,43,6.30
2015,03,13,03,44,6.30
2015,03,13,03,45,6.30
2015,03,13,03,46,6.30
2015,03,13,03,47,6.20
2015,03,13,03,48,6.20
2015,03,13,03,49,6.20
2015,03,13,03,50,6.20
2015,03,13,03,51,6.20
2015,03,13,03,52,6.30
2015,03,13,03,53,6.30
2015,03,13,03,54,6.30
2015,03,13,03,55,6.30
2015,03,13,03,56,6.30
2015,03,13,03,57,6.30
2015,03,13,03,58,6.30
2015,03,13,03,59,6.30
2015,03,13,04,00,6.30
2015,03,13,04,01,6.30
2015,03,13,04,02,6.30
2015,03,13,04,03,6.30
2015,03,13,04,04,6.30
2015,03,13,04,05,6.30
2015,03,13,04,06,6.30
2015,03,13,04,07,6.30
2015,03,13,04,08,6.30
2015,03,13,04,09,6.30
2015,03,13,04,10,6.30
2015,03,13,04,11,6.20
2015,03,13,04,12,6.20
2015,03,13,04,13,6.20
2015,03,13,04,14,6.20
2015,03,13,04,15,6.20
2015,03,13,04,16,6.20
2015,03,13,04,17,6.10
2015,03,13,04,18,6.10
2015,03,13,04,19,6.10
2015,03,13,04,20,6.10
2015,03,13,04,21,6.10
2015,03,13,04,22,6.10
2015,03,13,04,23,6.10
2015,03,13,04,24,6.10
2015,03,13,04,25,6.10
2015,03,13,04,26,6.00
2015,03,13,04,27,6.00
2015,03,13,04,28,6.00
2015,03,13,04,29,6.00
2015,03,13,04,30,6.00
2015,03,13,04,31,5.90
2015,03,13,04,32,5.90
2015,03,13,04,33,5.90
2015,03,13,04,34,5.90
2015,03,13,04,35,5.90
2015,03,13,04,36,5.90
2015,03,13,04,37,5.90
2015,03,13,04,38,5.90
2015,03,13,04,39,5.80
2015,03,13,04,40,5.80
2015,03,13,04,41,5.90
2015,03,13,04,42,5.90
2015,03,13,04,43,5.90
2015,03,13,04,44,5.90
2015,03,13,04,45,5.90
2015,03,13,04,46,5.90
2015,03,13,04,47,5.90
2015,03,13,04,48,5.90
2015,03,13,04,49,5.80
2015,03,13,04,50,5.80
2015,03,13,04,51,5.80
2015,03,13,04,52,5.80
2015,03,13,04,53,5.80
2015,03,13,04,54,5.80
2015,03,13,04,55,5.80
2015,03,13,04,56,5.80
2015,03,13,04,57,5.80
2015,03,13,04,58,5.80
2015,03,13,04,59,5.80
2015,03,13,05,00,5.80
2015,03,13,05,01,5.80
2015,03,13,05,02,5.80
2015,03,13,05,03,5.80
2015,03,13,05,04,5.80
2015,03,13,05,05,5.90
2015,03,13,05,06,5.90
2015,03,13,05,07,6.00
2015,03,13,05,08,6.00
2015,03,13,05,09,6.10
2015,03,13,05,10,6.10
2015,03,13,05,11,6.10
2015,03,13,05,12,6.10
2015,03,13,05,13,6.10
2015,03,13,05,14,6.10
2015,03,13,05,15,6.10
2015,03,13,05,16,6.10
2015,03,13,05,17,6.10
2015,03,13,05,18,6.00
2015,03,13,05,19,6.00
2015,03,13,05,20,6.00
2015,03,13,05,21,6.00
2015,03,13,05,22,6.00
2015,03,13,05,23,6.00
2015,03,13,05,24,6.00
2015,03,13,05,25,6.00
2015,03,13,05,26,6.00
2015,03,13,05,27,6.00
2015,03,13,05,28,6.00
2015,03,13,05,29,6.00
2015,03,13,05,30,5.90
2015,03,13,05,31,5.90
2015,03,13,05,32,5.90
2015,03,13,05,33,5.90
2015,03,13,05,34,5.90
2015,03,13,05,35,5.90
2015,03,13,05,36,5.90
2015,03,13,05,37,5.90
2015,03,13,05,38,5.90
2015,03,13,05,39,5.90
2015,03,13,05,40,5.90
2015,03,13,05,41,5.90
2015,03,13,05,42,6.00
2015,03,13,05,43,6.00
2015,03,13,05,44,6.10
2015,03,13,05,45,6.10
2015,03,13,05,46,6.10
2015,03,13,05,47,6.10
2015,03,13,05,48,6.10
2015,03,13,05,49,6.20
2015,03,13,05,50,6.20
2015,03,13,05,51,6.20
2015,03,13,05,52,6.20
2015,03,13,05,53,6.20
2015,03,13,05,54,6.20
2015,03,13,05,55,6.10
2015,03,13,05,56,6.10
2015,03,13,05,57,6.10
2015,03,13,05,58,6.10
2015,03,13,05,59,6.10
2015,03,13,06,00,6.10
2015,03,13,06,01,6.10
2015,03,13,06,02,6.10
2015,03,13,06,03,6.10
2015,03,13,06,04,6.10
2015,03,13,06,05,6.10
2015,03,13,06,06,6.10
2015,03,13,06,07,6.10
2015,03,13,06,08,6.10
2015,03,13,06,09,6.10
2015,03,13,06,10,6.10
2015,03,13,06,11,6.10
2015,03,13,06,12,6.10
2015,03,13,06,13,6.10
2015,03,13,06,14,6.00
2015,03,13,06,15,6.10
2015,03,13,06,16,6.10
2015,03,13,06,17,6.10
2015,03,13,06,18,6.10
2015,03,13,06,19,6.10
2015,03,13,06,20,6.20
2015,03,13,06,21,6.20
2015,03,13,06,22,6.20
2015,03,13,06,23,6.20
2015,03,13,06,24,6.20
2015,03,13,06,25,6.20
2015,03,13,06,26,6.20
2015,03,13,06,27,6.20
2015,03,13,06,28,6.20
2015,03,13,06,29,6.30
2015,03,13,06,30,6.20
2015,03,13,06,31,6.20
2015,03,13,06,32,6.20
2015,03,13,06,33,6.20
2015,03,13,06,34,6.20
2015,03,13,06,35,6.20
2015,03,13,06,36,6.20
2015,03,13,06,37,6.20
2015,03,13,06,38,6.20
2015,03,13,06,39,6.20
2015,03,13,06,40,6.20
2015,03,13,06,41,6.20
2015,03,13,06,42,6.20
2015,03,13,06,43,6.20
2015,03,13,06,44,6.20
2015,03,13,06,45,6.30
2015,03,13,06,46,6.30
2015,03,13,06,47,6.30
2015,03,13,06,48,6.30
2015,03,13,06,49,6.30
2015,03,13,06,50,6.30
2015,03,13,06,51,6.30
2015,03,13,06,52,6.30
2015,03,13,06,53,6.30
2015,03,13,06,54,6.30
2015,03,13,06,55,6.30
2015,03,13,06,56,6.20
2015,03,13,06,57,6.20
2015,03,13,06,58,6.20
2015,03,13,06,59,6.20
2015,03,13,07,00,6.20
2015,03,13,07,01,6.20
2015,03,13,07,02,6.20
2015,03,13,07,03,6.20
2015,03,13,07,04,6.20
2015,03,13,07,05,6.20
2015,03,13,07,06,6.20
2015,03,13,07,07,6.20
2015,03,13,07,08,6.20
2015,03,13,07,09,6.20
2015,03,13,07,10,6.20
2015,03,13,07,11,6.20
2015,03,13,07,12,6.20
2015,03,13,07,13,6.10
2015,03,13,07,14,6.10
2015,03,13,07,15,6.10
2015,03,13,07,16,6.10
2015,03,13,07,17,6.10
2015,03,13,07,18,6.10
2015,03,13,07,19,6.10
2015,03,13,07,20,6.10
2015,03,13,07,21,6.10
2015,03,13,07,22,6.10
2015,03,13,07,23,6.10
2015,03,13,07,24,6.10
2015,03,13,07,25,6.10
2015,03,13,07,26,6.10
2015,03,13,07,27,6.10
2015,03,13,07,28,6.10
2015,03,13,07,29,6.10
2015,03,13,07,30,6.10
2015,03,13,07,31,6.10
2015,03,13,07,32,6.10
2015,03,13,07,33,6.10
2015,03,13,07,34,6.10
2015,03,13,07,35,6.10
2015,03,13,07,36,6.00
2015,03,13,07,37,6.00
2015,03,13,07,38,6.00
2015,03,13,07,39,6.00
2015,03,13,07,40,6.10
2015,03,13,07,41,6.20
2015,03,13,07,42,6.20
2015,03,13,07,43,6.30
2015,03,13,07,44,6.30
2015,03,13,07,45,6.30
2015,03,13,07,46,6.30
2015,03,13,07,47,6.30
2015,03,13,07,48,6.30
2015,03,13,07,49,6.30
2015,03,13,07,50,6.30
2015,03,13,07,51,6.20
2015,03,13,07,52,6.10
2015,03,13,07,53,6.10
2015,03,13,07,54,6.00
2015,03,13,07,55,6.00
2015,03,13,07,56,6.00
2015,03,13,07,57,6.00
2015,03,13,07,58,6.00
2015,03,13,07,59,6.00
2015,03,13,08,00,6.00
2015,03,13,08,01,6.10
2015,03,13,08,02,6.10
2015,03,13,08,03,6.10
2015,03,13,08,04,6.10
2015,03,13,08,05,6.10
2015,03,13,08,06,6.10
2015,03,13,08,07,6.10
2015,03,13,08,08,6.10
2015,03,13,08,09,6.20
2015,03,13,08,10,6.20
2015,03,13,08,11,6.20
2015,03,13,08,12,6.20
2015,03,13,08,13,6.20
2015,03,13,08,14,6.20
2015,03,13,08,15,6.20
2015,03,13,08,16,6.20
2015,03,13,08,17,6.20
2015,03,13,08,18,6.20
2015,03,13,08,19,6.30
2015,03,13,08,20,6.30
2015,03,13,08,21,6.30
2015,03,13,08,22,6.30
2015,03,13,08,23,6.30
2015,03,13,08,24,6.40
2015,03,13,08,25,6.40
2015,03,13,08,26,6.40
2015,03,13,08,27,6.50
2015,03,13,08,28,6.50
2015,03,13,08,29,6.50
2015,03,13,08,30,6.60
2015,03,13,08,31,6.60
2015,03,13,08,32,6.60
2015,03,13,08,33,6.70
2015,03,13,08,34,6.70
2015,03,13,08,35,6.70
2015,03,13,08,36,6.80
2015,03,13,08,37,6.80
2015,03,13,08,38,6.80
2015,03,13,08,39,6.80
2015,03,13,08,40,6.80
2015,03,13,08,41,6.90
2015,03,13,08,42,6.90
2015,03,13,08,43,6.90
2015,03,13,08,44,6.90
2015,03,13,08,45,6.90
2015,03,13,08,46,6.90
2015,03,13,08,47,6.90
2015,03,13,08,48,6.90
2015,03,13,08,49,6.80
2015,03,13,08,50,6.80
2015,03,13,08,51,6.80
2015,03,13,08,52,6.80
2015,03,13,08,53,6.80
2015,03,13,08,54,6.90
2015,03,13,08,55,6.90
2015,03,13,08,56,6.90
2015,03,13,08,57,7.00
2015,03,13,08,58,7.00
2015,03,13,08,59,7.10
2015,03,13,09,00,7.10
2015,03,13,09,01,7.20
2015,03,13,09,02,7.20
2015,03,13,09,03,7.20
2015,03,13,09,04,7.20
2015,03,13,09,05,7.20
2015,03,13,09,06,7.30
2015,03,13,09,07,7.30
2015,03,13,09,08,7.30
2015,03,13,09,09,7.30
2015,03,13,09,10,7.30
2015,03,13,09,11,7.30
2015,03,13,09,12,7.30
2015,03,13,09,13,7.30
2015,03,13,09,14,7.40
2015,03,13,09,15,7.40
2015,03,13,09,16,7.50
2015,03,13,09,17,7.50
2015,03,13,09,18,7.60
2015,03,13,09,19,7.60
2015,03,13,09,20,7.70
2015,03,13,09,21,7.70
2015,03,13,09,22,7.80
2015,03,13,09,23,7.80
2015,03,13,09,24,7.90
2015,03,13,09,25,7.90
2015,03,13,09,26,7.90
2015,03,13,09,27,8.00
2015,03,13,09,28,8.00
2015,03,13,09,29,8.00
2015,03,13,09,30,8.10
2015,03,13,09,31,8.10
2015,03,13,09,32,8.20
2015,03,13,09,33,8.20
2015,03,13,09,34,8.30
2015,03,13,09,35,8.40
2015,03,13,09,36,8.50
2015,03,13,09,37,8.60
2015,03,13,09,38,8.70
2015,03,13,09,39,8.80
2015,03,13,09,40,8.90
2015,03,13,09,41,9.10
2015,03,13,09,42,9.20
2015,03,13,09,43,9.30
2015,03,13,09,44,9.50
2015,03,13,09,45,9.60
2015,03,13,09,46,9.80
2015,03,13,09,47,10.10
2015,03,13,09,48,10.30
2015,03,13,09,49,10.50
2015,03,13,09,50,10.70
2015,03,13,09,51,11.00
2015,03,13,09,52,11.20
2015,03,13,09,53,11.40
2015,03,13,09,54,11.50
2015,03,13,09,55,11.70
2015,03,13,09,56,11.80
2015,03,13,09,57,11.90
2015,03,13,09,58,11.90
2015,03,13,09,59,12.00
2015,03,13,10,00,12.10
2015,03,13,10,01,12.20
2015,03,13,10,02,12.20
2015,03,13,10,03,12.20
2015,03,13,10,04,12.20
2015,03,13,10,05,12.20
2015,03,13,10,06,12.20
2015,03,13,10,07,12.20
2015,03,13,10,08,12.20
2015,03,13,10,09,12.20
2015,03,13,10,10,12.30
2015,03,13,10,11,12.30
2015,03,13,10,12,12.30
2015,03,13,10,13,12.30
2015,03,13,10,14,12.20
2015,03,13,10,15,12.20
2015,03,13,10,16,12.20
2015,03,13,10,17,12.20
2015,03,13,10,18,12.20
2015,03,13,10,19,12.20
2015,03,13,10,20,12.20
2015,03,13,10,21,12.20
2015,03,13,10,22,12.20
2015,03,13,10,23,12.30
2015,03,13,10,24,12.30
2015,03,13,10,25,12.30
2015,03,13,10,26,12.40
2015,03,13,10,27,12.50
2015,03,13,10,28,12.50
2015,03,13,10,29,12.60
2015,03,13,10,30,12.60
2015,03,13,10,31,12.70
2015,03,13,10,32,12.80
2015,03,13,10,33,12.80
2015,03,13,10,34,12.80
2015,03,13,10,35,12.80
2015,03,13,10,36,12.80
2015,03,13,10,37,12.90
2015,03,13,10,38,12.90
2015,03,13,10,39,12.90
2015,03,13,10,40,13.00
2015,03,13,10,41,13.10
2015,03,13,10,42,13.10
2015,03,13,10,43,13.10
2015,03,13,10,44,13.10
2015,03,13,10,45,13.10
2015,03,13,10,46,13.20
2015,03,13,10,47,13.20
2015,03,13,10,48,13.30
2015,03,13,10,49,13.30
2015,03,13,10,50,13.30
2015,03,13,10,51,13.30
2015,03,13,10,52,13.30
2015,03,13,10,53,13.30
2015,03,13,10,54,13.30
2015,03,13,10,55,13.20
2015,03,13,10,56,13.20
2015,03,13,10,57,13.20
2015,03,13,10,58,13.20
2015,03,13,10,59,13.20
2015,03,13,11,00,13.20
2015,03,13,11,01,13.20
2015,03,13,11,02,13.20
2015,03,13,11,03,13.20
2015,03,13,11,04,13.10
2015,03,13,11,05,13.00
2015,03,13,11,06,12.90
2015,03,13,11,07,12.90
2015,03,13,11,08,12.90
2015,03,13,11,09,12.90
2015,03,13,11,10,12.90
2015,03,13,11,11,12.90
2015,03,13,11,12,12.90
2015,03,13,11,13,12.90
2015,03,13,11,14,12.90
2015,03,13,11,15,12.90
2015,03,13,11,16,12.90
2015,03,13,11,17,12.90
2015,03,13,11,18,12.90
2015,03,13,11,19,12.90
2015,03,13,11,20,13.00
2015,03,13,11,21,13.00
2015,03,13,11,22,13.00
2015,03,13,11,23,13.00
2015,03,13,11,24,13.00
2015,03,13,11,25,13.00
2015,03,13,11,26,13.00
2015,03,13,11,27,13.00
2015,03,13,11,28,12.90
2015,03,13,11,29,12.90
2015,03,13,11,30,12.90
2015,03,13,11,31,12.90
2015,03,13,11,32,12.90
2015,03,13,11,33,12.90
2015,03,13,11,34,12.90
2015,03,13,11,35,12.90
2015,03,13,11,36,12.90
2015,03,13,11,37,12.90
2015,03,13,11,38,12.90
2015,03,13,11,39,12.90
2015,03,13,11,40,12.90
2015,03,13,11,41,12.90
2015,03,13,11,42,12.90
2015,03,13,11,43,12.90
2015,03,13,11,44,12.90
2015,03,13,11,45,13.00
2015,03,13,11,46,13.00
2015,03,13,11,47,13.00
2015,03,13,11,48,13.10
2015,03,13,11,49,13.10
2015,03,13,11,50,13.10
2015,03,13,11,51,13.10
2015,03,13,11,52,13.10
2015,03,13,11,53,13.10
2015,03,13,11,54,13.10
2015,03,13,11,55,13.10
2015,03,13,11,56,13.10
2015,03,13,11,57,13.00
2015,03,13,11,58,13.00
2015,03,13,11,59,13.00
2015,03,13,12,00,12.90
2015,03,13,12,01,13.00
2015,03,13,12,02,13.00
2015,03,13,12,03,13.10
2015,03,13,12,04,13.10
2015,03,13,12,05,13.10
2015,03,13,12,06,13.10
2015,03,13,12,07,13.10
2015,03,13,12,08,13.10
2015,03,13,12,09,13.10
2015,03,13,12,10,13.10
2015,03,13,12,11,13.10
2015,03,13,12,12,13.10
2015,03,13,12,13,13.10
2015,03,13,12,14,13.00
2015,03,13,12,15,13.10
2015,03,13,12,16,13.10
2015,03,13,12,17,13.10
2015,03,13,12,18,13.20
2015,03,13,12,19,13.30
2015,03,13,12,20,13.30
2015,03,13,12,21,13.40
2015,03,13,12,22,13.50
2015,03,13,12,23,13.60
2015,03,13,12,24,13.70
2015,03,13,12,25,13.80
2015,03,13,12,26,13.80
2015,03,13,12,27,13.90
2015,03,13,12,28,13.90
2015,03,13,12,29,14.00
2015,03,13,12,30,14.10
2015,03,13,12,31,14.20
2015,03,13,12,32,14.20
2015,03,13,12,33,14.10
2015,03,13,12,34,14.10
2015,03,13,12,35,14.20
2015,03,13,12,36,14.20
2015,03,13,12,37,14.20
2015,03,13,12,38,14.20
2015,03,13,12,39,14.30
2015,03,13,12,40,14.30
2015,03,13,12,41,14.30
2015,03,13,12,42,14.30
2015,03,13,12,43,14.30
2015,03,13,12,44,14.40
2015,03,13,12,45,14.40
2015,03,13,12,46,14.30
2015,03,13,12,47,14.30
2015,03,13,12,48,14.30
2015,03,13,12,49,14.20
2015,03,13,12,50,14.20
2015,03,13,12,51,14.30
2015,03,13,12,52,14.20
2015,03,13,12,53,14.20
2015,03,13,12,54,14.10
2015,03,13,12,55,14.10
2015,03,13,12,56,14.10
2015,03,13,12,57,14.10
2015,03,13,12,58,14.10
2015,03,13,12,59,14.10
2015,03,13,13,00,14.10
2015,03,13,13,01,14.10
2015,03,13,13,02,14.10
2015,03,13,13,03,14.10
2015,03,13,13,04,14.20
2015,03,13,13,05,14.10
2015,03,13,13,06,14.20
2015,03,13,13,07,14.20
2015,03,13,13,08,14.20
2015,03,13,13,09,14.20
2015,03,13,13,10,14.20
2015,03,13,13,11,14.20
2015,03,13,13,12,14.10
2015,03,13,13,13,14.10
2015,03,13,13,14,14.20
2015,03,13,13,15,14.20
2015,03,13,13,16,14.30
2015,03,13,13,17,14.40
2015,03,13,13,18,14.40
2015,03,13,13,19,14.40
2015,03,13,13,20,14.40
2015,03,13,13,21,14.40
2015,03,13,13,22,14.50
2015,03,13,13,23,14.50
2015,03,13,13,24,14.50
2015,03,13,13,25,14.50
2015,03,13,13,26,14.40
2015,03,13,13,27,14.40
2015,03,13,13,28,14.40
2015,03,13,13,29,14.40
2015,03,13,13,30,14.50
2015,03,13,13,31,14.50
2015,03,13,13,32,14.60
2015,03,13,13,33,14.70
2015,03,13,13,34,14.70
2015,03,13,13,35,14.70
2015,03,13,13,36,14.60
2015,03,13,13,37,14.50
2015,03,13,13,38,14.50
2015,03,13,13,39,14.50
2015,03,13,13,40,14.60
2015,03,13,13,41,14.60
2015,03,13,13,42,14.50
2015,03,13,13,43,14.50
2015,03,13,13,44,14.40
2015,03,13,13,45,14.40
2015,03,13,13,46,14.30
2015,03,13,13,47,14.30
2015,03,13,13,48,14.40
2015,03,13,13,49,14.40
2015,03,13,13,50,14.40
2015,03,13,13,51,14.40
2015,03,13,13,52,14.50
2015,03,13,13,53,14.50
2015,03,13,13,54,14.50
2015,03,13,13,55,14.50
2015,03,13,13,56,14.50
2015,03,13,13,57,14.60
2015,03,13,13,58,14.60
2015,03,13,13,59,14.60
2015,03,13,14,00,14.70
2015,03,13,14,01,14.70
2015,03,13,14,02,14.70
2015,03,13,14,03,14.60
2015,03,13,14,04,14.60
2015,03,13,14,05,14.60
2015,03,13,14,06,14.60
2015,03,13,14,07,14.60
2015,03,13,14,08,14.60
2015,03,13,14,09,14.60
2015,03,13,14,10,14.60
2015,03,13,14,11,14.60
2015,03,13,14,12,14.60
2015,03,13,14,13,14.60
2015,03,13,14,14,14.60
2015,03,13,14,15,14.60
2015,03,13,14,16,14.60
2015,03,13,14,17,14.60
2015,03,13,14,18,14.60
2015,03,13,14,19,14.60
2015,03,13,14,20,14.60
2015,03,13,14,21,14.60
2015,03,13,14,22,14.60
2015,03,13,14,23,14.60
2015,03,13,14,24,14.60
2015,03,13,14,25,14.60
2015,03,13,14,26,14.50
2015,03,13,14,27,14.50
2015,03,13,14,28,14.60
2015,03,13,14,29,14.60
2015,03,13,14,30,14.60
2015,03,13,14,31,14.50
2015,03,13,14,32,14.50
2015,03,13,14,33,14.50
2015,03,13,14,34,14.50
2015,03,13,14,35,14.50
2015,03,13,14,36,14.50
2015,03,13,14,37,14.50
2015,03,13,14,38,14.60
2015,03,13,14,39,14.60
2015,03,13,14,40,14.70
2015,03,13,14,41,14.70
2015,03,13,14,42,14.80
2015,03,13,14,43,14.80
2015,03,13,14,44,14.80
2015,03,13,14,45,14.80
2015,03,13,14,46,14.90
2015,03,13,14,47,14.90
2015,03,13,14,48,14.90
2015,03,13,14,49,15.00
2015,03,13,14,50,15.00
2015,03,13,14,51,15.00
2015,03,13,14,52,15.00
2015,03,13,14,53,15.00
2015,03,13,14,54,15.00
2015,03,13,14,55,14.90
2015,03,13,14,56,14.90
2015,03,13,14,57,14.80
2015,03,13,14,58,14.80
2015,03,13,14,59,14.70
2015,03,13,15,00,14.70
2015,03,13,15,01,14.60
2015,03,13,15,02,14.60
2015,03,13,15,03,14.60
2015,03,13,15,04,14.60
2015,03,13,15,05,14.50
2015,03,13,15,06,14.50
2015,03,13,15,07,14.50
2015,03,13,15,08,14.50
2015,03,13,15,09,14.40
2015,03,13,15,10,14.40
2015,03,13,15,11,14.40
2015,03,13,15,12,14.40
2015,03,13,15,13,14.40
2015,03,13,15,14,14.40
2015,03,13,15,15,14.40
2015,03,13,15,16,14.50
2015,03,13,15,17,14.50
2015,03,13,15,18,14.50
2015,03,13,15,19,14.60
2015,03,13,15,20,14.60
2015,03,13,15,21,14.60
2015,03,13,15,22,14.60
2015,03,13,15,23,14.60
2015,03,13,15,24,14.60
2015,03,13,15,25,14.70
2015,03,13,15,26,14.70
2015,03,13,15,27,14.70
2015,03,13,15,28,14.70
2015,03,13,15,29,14.70
2015,03,13,15,30,14.70
2015,03,13,15,31,14.70
2015,03,13,15,32,14.70
2015,03,13,15,33,14.70
2015,03,13,15,34,14.70
2015,03,13,15,35,14.70
2015,03,13,15,36,14.80
2015,03,13,15,37,14.80
2015,03,13,15,38,14.80
2015,03,13,15,39,14.80
2015,03,13,15,40,14.80
2015,03,13,15,41,14.80
2015,03,13,15,42,14.80
2015,03,13,15,43,14.70
2015,03,13,15,44,14.70
2015,03,13,15,45,14.70
2015,03,13,15,46,14.70
2015,03,13,15,47,14.60
2015,03,13,15,48,14.60
2015,03,13,15,49,14.60
2015,03,13,15,50,14.50
2015,03,13,15,51,14.50
2015,03,13,15,52,14.60
2015,03,13,15,53,14.60
2015,03,13,15,54,14.50
2015,03,13,15,55,14.50
2015,03,13,15,56,14.50
2015,03,13,15,57,14.40
2015,03,13,15,58,14.40
2015,03,13,15,59,14.40
2015,03,13,16,00,14.40
2015,03,13,16,01,14.40
2015,03,13,16,02,14.50
2015,03,13,16,03,14.50
2015,03,13,16,04,14.50
2015,03,13,16,05,14.50
2015,03,13,16,06,14.40
2015,03,13,16,07,14.40
2015,03,13,16,08,14.30
2015,03,13,16,09,14.30
2015,03,13,16,10,14.30
2015,03,13,16,11,14.30
2015,03,13,16,12,14.30
2015,03,13,16,13,14.30
2015,03,13,16,14,14.30
2015,03,13,16,15,14.30
2015,03,13,16,16,14.30
2015,03,13,16,17,14.30
2015,03,13,16,18,14.30
2015,03,13,16,19,14.30
2015,03,13,16,20,14.20
2015,03,13,16,21,14.20
2015,03,13,16,22,14.20
2015,03,13,16,23,14.20
2015,03,13,16,24,14.20
2015,03,13,16,25,14.20
2015,03,13,16,26,14.20
2015,03,13,16,27,14.30
2015,03,13,16,28,14.30
2015,03,13,16,29,14.30
2015,03,13,16,30,14.30
2015,03,13,16,31,14.30
2015,03,13,16,32,14.30
2015,03,13,16,33,14.30
2015,03,13,16,34,14.30
2015,03,13,16,35,14.30
2015,03,13,16,36,14.30
2015,03,13,16,37,14.30
2015,03,13,16,38,14.30
2015,03,13,16,39,14.20
2015,03,13,16,40,14.20
2015,03,13,16,41,14.20
2015,03,13,16,42,14.20
2015,03,13,16,43,14.20
2015,03,13,16,44,14.20
2015,03,13,16,45,14.20
2015,03,13,16,46,14.20
2015,03,13,16,47,14.20
2015,03,13,16,48,14.20
2015,03,13,16,49,14.20
2015,03,13,16,50,14.20
2015,03,13,16,51,14.20
2015,03,13,16,52,14.10
2015,03,13,16,53,14.10
2015,03,13,16,54,14.10
2015,03,13,16,55,14.10
2015,03,13,16,56,14.10
2015,03,13,16,57,14.10
2015,03,13,16,58,14.10
2015,03,13,16,59,14.00
2015,03,13,17,00,14.00
2015,03,13,17,01,14.00
2015,03,13,17,02,14.00
2015,03,13,17,03,14.00
2015,03,13,17,04,14.00
2015,03,13,17,05,13.90
2015,03,13,17,06,13.90
2015,03,13,17,07,13.90
2015,03,13,17,08,13.90
2015,03,13,17,09,13.90
2015,03,13,17,10,13.90
2015,03,13,17,11,13.90
2015,03,13,17,12,13.80
2015,03,13,17,13,13.80
2015,03,13,17,14,13.80
2015,03,13,17,15,13.80
2015,03,13,17,16,13.80
2015,03,13,17,17,13.80
2015,03,13,17,18,13.80
2015,03,13,17,19,13.80
2015,03,13,17,20,13.80
2015,03,13,17,21,13.80
2015,03,13,17,22,13.80
2015,03,13,17,23,13.80
2015,03,13,17,24,13.80
2015,03,13,17,25,13.80
2015,03,13,17,26,13.80
2015,03,13,17,27,13.80
2015,03,13,17,28,13.80
2015,03,13,17,29,13.80
2015,03,13,17,30,13.80
2015,03,13,17,31,13.80
2015,03,13,17,32,13.80
2015,03,13,17,33,13.80
2015,03,13,17,34,13.80
2015,03,13,17,35,13.80
2015,03,13,17,36,13.80
2015,03,13,17,37,13.80
2015,03,13,17,38,13.80
2015,03,13,17,39,13.80
2015,03,13,17,40,13.80
2015,03,13,17,41,13.80
2015,03,13,17,42,13.80
2015,03,13,17,43,13.80
2015,03,13,17,44,13.80